GW5293 Weather Reports


Display with metric or nautical units.
time (UTC)temp
F
wind
direction
speed
MPH
gust
MPH
rain 1hr
in
rain 24hr
in
rain mn
in
humidity
%
barometer
mb
20260903141140 85 103 2.0 2.0 0.00 0.00 0.00 73 1018.0
20260903140640 85 24 2.0 3.0 0.00 0.00 0.00 73 1018.0
20260903140139 84 201 0.0 2.0 0.00 0.00 0.00 74 1018.0
20260903135639 84 324 2.0 3.0 0.00 0.00 0.00 74 1018.0
20260903135138 83 290 2.0 4.0 0.00 0.00 0.00 75 1018.0
20260903134637 82 297 2.0 3.0 0.00 0.00 0.00 77 1018.0
20260903134137 82 144 3.0 3.0 0.00 0.00 0.00 77 1018.0
20260903133636 82 65 2.0 2.0 0.00 0.00 0.00 78 1018.0
20260903133136 82 269 0.0 2.0 0.00 0.00 0.00 78 1018.0
20260903132635 83 319 3.0 3.0 0.00 0.00 0.00 76 1018.0
20260903132134 84 34 0.0 2.0 0.00 0.00 0.00 76 1018.0
20260903131634 83 251 2.0 2.0 0.00 0.00 0.00 76 1018.0
20260903131134 82 208 0.0 2.0 0.00 0.00 0.00 77 1018.0
20260903130633 82 294 2.0 2.0 0.00 0.00 0.00 78 1018.0
20260903130133 82 59 0.0 2.0 0.00 0.00 0.00 79 1018.0
20260903125632 82 84 2.0 2.0 0.00 0.00 0.00 78 1018.0
20260903125132 81 222 0.0 2.0 0.00 0.00 0.00 79 1018.0
20260903124631 79 45 0.0 2.0 0.00 0.00 0.00 84 1018.0
20260903124131 79 84 0.0 2.0 0.00 0.00 0.00 84 1018.0
20260903123630 78 241 2.0 2.0 0.00 0.00 0.00 87 1018.0
20260903123129 77 74 2.0 2.0 0.00 0.00 0.00 88 1018.0
20260903122629 76 310 0.0 0.0 0.00 0.00 0.00 90 1018.0
20260903122128 75 85 2.0 3.0 0.00 0.00 0.00 90 1018.0
20260903121628 74 56 2.0 3.0 0.00 0.00 0.00 93 1018.0
20260903121127 73 89 2.0 2.0 0.00 0.00 0.00 96 1018.0
20260903120626 72 320 2.0 2.0 0.00 0.00 0.00 98 1018.0
20260903120126 72 306 2.0 2.0 0.00 0.00 0.00 98 1017.0
20260903115625 71 242 0.0 2.0 0.00 0.00 0.00 98 1017.0
20260903115125 71 47 2.0 3.0 0.00 0.00 0.00 98 1018.0
20260903114624 71 25 2.0 2.0 0.00 0.00 0.00 98 1017.0
20260903114123 71 81 0.0 2.0 0.00 0.00 0.00 98 1017.0
20260903113623 71 353 0.0 2.0 0.00 0.00 0.00 98 1017.0
20260903113122 71 13 0.0 2.0 0.00 0.00 0.00 98 1017.0
20260903112622 71 350 0.0 0.0 0.00 0.00 0.00 98 1017.0
20260903112121 71 266 0.0 0.0 0.00 0.00 0.00 98 1017.0
20260903111621 71 148 0.0 0.0 0.00 0.00 0.00 98 1017.0
20260903111120 71 108 0.0 0.0 0.00 0.00 0.00 98 1017.0
20260903110620 71 128 2.0 2.0 0.00 0.00 0.00 98 1017.0
20260903110119 71 325 0.0 2.0 0.00 0.00 0.00 98 1017.0
20260903105619 71 315 0.0 2.0 0.00 0.00 0.00 98 1017.0
20260903105118 71 324 0.0 0.0 0.00 0.00 0.00 97 1017.0
20260903104618 71 58 2.0 2.0 0.00 0.00 0.00 97 1017.0
20260903104117 71 111 0.0 0.0 0.00 0.00 0.00 97 1017.0
20260903103617 71 40 0.0 2.0 0.00 0.00 0.00 97 1017.0
20260903103116 71 265 0.0 0.0 0.00 0.00 0.00 97 1017.0
20260903102616 71 105 2.0 2.0 0.00 0.00 0.00 97 1017.0
20260903102115 71 89 0.0 2.0 0.00 0.00 0.00 97 1017.0
20260903101614 71 53 0.0 0.0 0.00 0.00 0.00 97 1016.0
20260903101114 71 243 0.0 0.0 0.00 0.00 0.00 97 1016.0
20260903100614 71 31 0.0 2.0 0.00 0.00 0.00 96 1016.0
20260903100113 71 102 0.0 2.0 0.00 0.00 0.00 96 1017.0
20260903095613 71 32 0.0 2.0 0.00 0.00 0.00 96 1017.0
20260903095112 72 197 0.0 2.0 0.00 0.00 0.00 96 1017.0
20260903094612 72 62 0.0 2.0 0.00 0.00 0.00 96 1016.0
20260903094111 72 37 0.0 0.0 0.00 0.00 0.00 96 1016.0
20260903093611 72 86 0.0 2.0 0.00 0.00 0.00 95 1016.0
20260903093110 72 75 0.0 2.0 0.00 0.00 0.00 95 1016.0
20260903092610 72 205 0.0 0.0 0.00 0.00 0.00 95 1017.0
20260903092109 72 4 2.0 2.0 0.00 0.00 0.00 95 1016.0
20260903091609 72 315 0.0 0.0 0.00 0.00 0.00 95 1016.0
20260903091108 72 56 0.0 2.0 0.00 0.00 0.00 94 1016.0
20260903090608 72 295 2.0 2.0 0.00 0.00 0.00 94 1017.0
20260903090107 73 301 2.0 2.0 0.00 0.00 0.00 94 1016.0
20260903085606 73 119 0.0 2.0 0.00 0.00 0.00 94 1016.0
20260903085106 73 1 2.0 2.0 0.00 0.00 0.00 94 1016.0
20260903084606 73 33 0.0 2.0 0.00 0.00 0.00 93 1016.0
20260903084105 73 274 2.0 2.0 0.00 0.00 0.00 93 1016.0
20260903083604 73 256 0.0 2.0 0.00 0.00 0.00 93 1016.0
20260903083104 73 303 0.0 2.0 0.00 0.00 0.00 93 1017.0
20260903082604 73 257 2.0 2.0 0.00 0.00 0.00 93 1017.0
20260903082103 73 329 0.0 2.0 0.00 0.00 0.00 93 1016.0
20260903081603 73 34 2.0 2.0 0.00 0.00 0.00 93 1016.0
20260903081102 73 25 0.0 2.0 0.00 0.00 0.00 93 1016.0
20260903080602 73 318 0.0 2.0 0.00 0.00 0.00 93 1016.0
20260903075601 73 309 0.0 2.0 0.00 0.00 0.00 94 1016.0
20260903075100 73 36 0.0 2.0 0.00 0.00 0.00 93 1016.0
20260903074600 73 130 0.0 2.0 0.00 0.00 0.00 92 1016.0
20260903074059 73 224 0.0 2.0 0.00 0.00 0.00 93 1016.0
20260903073559 73 58 0.0 2.0 0.00 0.00 0.00 92 1016.0
20260903073058 74 280 0.0 2.0 0.00 0.00 0.00 92 1016.0
20260903072558 74 301 3.0 3.0 0.00 0.00 0.00 92 1016.0
20260903072057 74 357 0.0 2.0 0.00 0.00 0.00 92 1016.0
20260903071557 74 351 0.0 2.0 0.00 0.00 0.00 92 1016.0
20260903071056 74 337 2.0 3.0 0.00 0.00 0.00 92 1016.0
20260903070556 74 39 0.0 2.0 0.00 0.00 0.00 92 1016.0
20260903070055 74 290 2.0 2.0 0.00 0.00 0.00 92 1016.0
20260903065555 74 321 0.0 2.0 0.00 0.00 0.00 92 1016.0
20260903065055 74 8 0.0 2.0 0.00 0.00 0.00 92 1016.0
20260903064554 74 149 0.0 2.0 0.00 0.00 0.00 91 1016.0
20260903064054 74 310 0.0 2.0 0.00 0.00 0.00 91 1016.0
20260903063553 74 82 0.0 2.0 0.00 0.00 0.00 91 1016.0
20260903063052 74 302 0.0 2.0 0.00 0.00 0.00 91 1016.0
20260903062552 74 290 0.0 2.0 0.00 0.00 0.00 90 1016.0
20260903062051 74 118 2.0 2.0 0.00 0.00 0.00 90 1016.0
20260903061550 75 41 0.0 2.0 0.00 0.00 0.00 89 1016.0
20260903061049 75 105 0.0 2.0 0.00 0.00 0.00 89 1016.0
20260903060549 75 76 0.0 2.0 0.00 0.00 0.00 88 1016.0
20260903060048 75 188 2.0 2.0 0.00 0.00 0.00 87 1016.0
20260903055548 76 107 0.0 2.0 0.00 0.00 0.00 86 1016.0
20260903055048 76 269 0.0 2.0 0.00 0.00 0.00 86 1016.0
20260903054547 76 53 0.0 0.0 0.00 0.00 0.00 86 1016.0
20260903054047 76 297 0.0 2.0 0.00 0.00 0.00 85 1016.0
20260903053546 76 325 0.0 2.0 0.00 0.00 0.00 85 1016.0
20260903053046 77 299 0.0 2.0 0.00 0.00 0.00 84 1016.0
20260903052545 77 254 0.0 2.0 0.00 0.00 0.00 83 1016.0
20260903052044 77 306 0.0 2.0 0.00 0.00 0.00 83 1016.0
20260903051544 77 303 0.0 0.0 0.00 0.00 0.00 83 1016.0
20260903051043 77 341 2.0 3.0 0.00 0.00 0.00 83 1016.0
20260903050543 77 65 0.0 2.0 0.00 0.00 0.00 82 1016.0
20260903050042 77 316 0.0 2.0 0.00 0.00 0.00 82 1016.0
20260903045542 77 337 2.0 2.0 0.00 0.00 0.00 83 1017.0
20260903045041 77 357 2.0 2.0 0.00 0.00 0.00 82 1016.0
20260903044541 77 287 0.0 2.0 0.00 0.00 0.00 82 1016.0
20260903044040 77 326 2.0 2.0 0.00 0.00 0.00 83 1017.0
20260903043540 77 288 2.0 2.0 0.00 0.00 0.00 82 1017.0
20260903043040 77 280 0.0 2.0 0.00 0.00 0.00 83 1017.0
20260903042539 77 223 2.0 2.0 0.00 0.00 0.00 83 1016.0
20260903042038 77 262 0.0 2.0 0.00 0.00 0.00 84 1016.0
20260903041538 77 309 0.0 2.0 0.00 0.00 0.00 84 1016.0
20260903041037 78 276 2.0 3.0 0.00 0.00 0.00 83 1016.0
20260903040536 78 345 0.0 0.0 0.00 0.00 0.00 82 1017.0
20260903040036 79 293 2.0 2.0 0.00 0.00 0.00 81 1017.0
20260903035536 78 343 0.0 2.0 0.00 0.00 0.00 80 1016.0
20260903035035 79 311 0.0 0.0 0.00 0.00 0.00 80 1016.0
20260903034535 78 255 2.0 3.0 0.00 0.00 0.00 81 1016.0
20260903034035 78 255 0.0 0.0 0.00 0.00 0.00 81 1017.0
20260903033534 79 313 0.0 2.0 0.00 0.00 0.00 81 1016.0
20260903033034 79 354 2.0 4.0 0.00 0.00 0.00 80 1016.0
20260903032533 79 292 3.0 3.0 0.00 0.00 0.00 80 1016.0
20260903032033 78 269 0.0 2.0 0.00 0.00 0.00 81 1017.0
20260903031533 78 269 0.0 0.0 0.00 0.00 0.00 82 1016.0
20260903031032 78 348 2.0 2.0 0.00 0.00 0.00 82 1017.0
20260903030531 78 325 0.0 2.0 0.00 0.00 0.00 83 1016.0
20260903030031 78 294 0.0 2.0 0.00 0.00 0.00 81 1016.0
20260903025530 79 283 0.0 0.0 0.00 0.00 0.00 79 1016.0
20260903025030 79 247 2.0 3.0 0.00 0.00 0.00 79 1017.0
20260903024529 79 63 0.0 2.0 0.00 0.00 0.00 80 1016.0
20260903024029 80 78 0.0 3.0 0.00 0.00 0.00 79 1016.0
20260903023528 80 180 0.0 2.0 0.00 0.00 0.00 78 1016.0
20260903023027 80 193 0.0 2.0 0.00 0.00 0.00 77 1017.0
20260903022527 80 279 0.0 3.0 0.00 0.00 0.00 76 1017.0
20260903022026 80 75 0.0 3.0 0.00 0.00 0.00 76 1016.0
20260903021526 81 216 2.0 2.0 0.00 0.00 0.00 75 1017.0
20260903021025 81 78 2.0 2.0 0.00 0.00 0.00 75 1016.0
20260903020525 81 300 0.0 2.0 0.00 0.00 0.00 74 1016.0
20260903020025 81 320 3.0 4.0 0.00 0.00 0.00 74 1017.0
20260903015524 82 104 2.0 2.0 0.00 0.00 0.00 74 1016.0
20260903015023 82 298 3.0 5.0 0.00 0.00 0.00 73 1016.0
20260903014523 82 311 0.0 2.0 0.00 0.00 0.00 72 1017.0
20260903014022 82 314 0.0 0.0 0.00 0.00 0.00 71 1016.0
20260903013521 82 315 0.0 0.0 0.00 0.00 0.00 70 1016.0
20260903013021 82 310 0.0 2.0 0.00 0.00 0.00 71 1016.0
20260903012520 83 341 0.0 2.0 0.00 0.00 0.00 71 1016.0
20260903012020 83 302 2.0 2.0 0.00 0.00 0.00 71 1016.0
20260903011519 83 302 2.0 2.0 0.00 0.00 0.00 70 1016.0
20260903011018 84 322 0.0 2.0 0.00 0.00 0.00 69 1016.0
20260903010518 84 297 0.0 2.0 0.00 0.00 0.00 67 1016.0
20260903010018 84 284 2.0 2.0 0.00 0.00 0.00 65 1016.0
20260903005516 84 306 0.0 2.0 0.00 0.00 0.00 66 1016.0
20260903005016 84 252 0.0 2.0 0.00 0.00 0.00 65 1016.0
20260903004516 84 288 0.0 2.0 0.00 0.00 0.00 67 1016.0
20260903004015 84 321 2.0 2.0 0.00 0.00 0.00 68 1016.0
20260903003515 84 323 2.0 2.0 0.00 0.00 0.00 68 1016.0
20260903003014 84 309 0.0 0.0 0.00 0.00 0.00 67 1016.0
20260903002514 85 304 0.0 0.0 0.00 0.00 0.00 66 1016.0
20260903002013 85 315 0.0 0.0 0.00 0.00 0.00 65 1016.0
20260903001513 85 306 2.0 2.0 0.00 0.00 0.00 65 1016.0
20260903001012 85 309 3.0 3.0 0.00 0.00 0.00 65 1016.0
20260903000512 86 301 2.0 2.0 0.00 0.00 0.00 63 1016.0
20260903000011 86 230 0.0 0.0 0.00 0.00 0.00 62 1016.0
20260902235510 86 233 0.0 0.0 0.00 0.00 0.00 62 1016.0
20260902235010 87 266 0.0 2.0 0.00 0.00 0.00 62 1016.0
20260902234510 87 269 0.0 2.0 0.00 0.00 0.00 62 1016.0
20260902234009 87 44 0.0 0.0 0.00 0.00 0.00 62 1016.0
20260902233509 88 252 3.0 3.0 0.00 0.00 0.00 61 1016.0
20260902233008 88 242 0.0 0.0 0.00 0.00 0.00 60 1016.0
20260902232508 88 232 0.0 2.0 0.00 0.00 0.00 59 1016.0
20260902232007 88 212 0.0 0.0 0.00 0.00 0.00 59 1016.0
20260902231507 89 255 0.0 2.0 0.00 0.00 0.00 59 1016.0
20260902231007 89 262 2.0 2.0 0.00 0.00 0.00 58 1016.0
20260902230506 89 255 2.0 3.0 0.00 0.00 0.00 58 1016.0
20260902230006 90 275 2.0 2.0 0.00 0.00 0.00 56 1016.0
20260902225505 90 258 2.0 2.0 0.00 0.00 0.00 55 1016.0
20260902225005 90 271 2.0 2.0 0.00 0.00 0.00 55 1016.0
20260902224504 90 272 2.0 2.0 0.00 0.00 0.00 53 1016.0
20260902224003 91 264 2.0 2.0 0.00 0.00 0.00 54 1016.0
20260902223503 91 259 2.0 2.0 0.00 0.00 0.00 53 1016.0
20260902223002 91 254 2.0 2.0 0.00 0.00 0.00 52 1016.0
20260902222502 92 260 2.0 2.0 0.00 0.00 0.00 51 1016.0
20260902222001 92 248 2.0 3.0 0.00 0.00 0.00 51 1016.0
20260902221501 92 230 0.0 2.0 0.00 0.00 0.00 50 1016.0
20260902221000 93 268 2.0 2.0 0.00 0.00 0.00 50 1016.0
20260902220459 93 241 0.0 2.0 0.00 0.00 0.00 50 1016.0
20260902215959 94 265 0.0 2.0 0.00 0.00 0.00 48 1016.0
20260902215459 94 268 2.0 2.0 0.00 0.00 0.00 47 1016.0
20260902214958 94 248 0.0 2.0 0.00 0.00 0.00 47 1016.0
20260902214458 95 265 2.0 3.0 0.00 0.00 0.00 44 1016.0
20260902213957 95 279 2.0 2.0 0.00 0.00 0.00 47 1016.0
20260902213456 96 253 2.0 2.0 0.00 0.00 0.00 44 1016.0
20260902212956 97 286 2.0 2.0 0.00 0.00 0.00 46 1016.0
20260902212455 97 235 0.0 3.0 0.00 0.00 0.00 42 1016.0
20260902211955 98 296 2.0 3.0 0.00 0.00 0.00 42 1016.0
20260902211454 98 238 2.0 3.0 0.00 0.00 0.00 42 1016.0
20260902210954 98 273 2.0 3.0 0.00 0.00 0.00 42 1016.0
20260902210453 97 282 2.0 3.0 0.00 0.00 0.00 44 1016.0
20260902205953 98 205 2.0 3.0 0.00 0.00 0.00 45 1016.0
20260902205452 99 292 3.0 3.0 0.00 0.00 0.00 43 1016.0
20260902204951 99 248 0.0 2.0 0.00 0.00 0.00 43 1016.0
20260902204451 99 236 0.0 2.0 0.00 0.00 0.00 43 1016.0
20260902203950 99 276 2.0 2.0 0.00 0.00 0.00 43 1016.0
20260902203450 99 254 2.0 3.0 0.00 0.00 0.00 42 1016.0
20260902202949 99 258 0.0 2.0 0.00 0.00 0.00 45 1016.0
20260902202449 99 221 2.0 3.0 0.00 0.00 0.00 43 1016.0
20260902201948 98 238 2.0 3.0 0.00 0.00 0.00 43 1016.0
20260902201448 99 300 2.0 2.0 0.00 0.00 0.00 42 1016.0
20260902200947 98 285 2.0 4.0 0.00 0.00 0.00 44 1016.0
20260902200446 97 324 0.0 2.0 0.00 0.00 0.00 46 1016.0
20260902195946 96 308 2.0 2.0 0.00 0.00 0.00 45 1016.0
20260902195445 96 298 2.0 2.0 0.00 0.00 0.00 47 1017.0
20260902194945 96 268 2.0 2.0 0.00 0.00 0.00 47 1017.0
20260902194445 96 224 0.0 0.0 0.00 0.00 0.00 47 1017.0
20260902193944 97 225 3.0 3.0 0.00 0.00 0.00 45 1017.0
20260902193443 97 276 0.0 2.0 0.00 0.00 0.00 46 1017.0
20260902192943 98 239 2.0 2.0 0.00 0.00 0.00 47 1017.0
20260902192442 98 278 2.0 2.0 0.00 0.00 0.00 47 1017.0
20260902191941 98 259 2.0 3.0 0.00 0.00 0.00 45 1017.0
20260902191441 98 247 2.0 2.0 0.00 0.00 0.00 45 1017.0
20260902190940 97 263 3.0 3.0 0.00 0.00 0.00 44 1017.0
20260902190439 98 139 2.0 3.0 0.00 0.00 0.00 43 1017.0
20260902185939 97 248 2.0 2.0 0.00 0.00 0.00 45 1017.0
20260902185438 98 243 2.0 2.0 0.00 0.00 0.00 46 1017.0
20260902184938 98 291 2.0 2.0 0.00 0.00 0.00 44 1017.0
20260902184437 99 220 2.0 3.0 0.00 0.00 0.00 46 1017.0
20260902183936 98 292 0.0 3.0 0.00 0.00 0.00 47 1017.0
20260902183436 98 279 3.0 4.0 0.00 0.00 0.00 43 1017.0
20260902182935 98 37 0.0 2.0 0.00 0.00 0.00 46 1017.0
20260902182435 97 246 2.0 2.0 0.00 0.00 0.00 50 1017.0
20260902181934 96 220 2.0 3.0 0.00 0.00 0.00 50 1018.0
20260902181434 97 4 2.0 2.0 0.00 0.00 0.00 47 1017.0
20260902180933 97 128 2.0 2.0 0.00 0.00 0.00 46 1018.0
20260902180433 97 255 2.0 2.0 0.00 0.00 0.00 51 1018.0
20260902175932 97 267 2.0 3.0 0.00 0.00 0.00 50 1018.0
20260902175432 96 267 3.0 3.0 0.00 0.00 0.00 52 1018.0
20260902174931 95 256 2.0 3.0 0.00 0.00 0.00 50 1018.0
20260902174431 94 150 0.0 2.0 0.00 0.00 0.00 52 1018.0
20260902173930 95 275 0.0 2.0 0.00 0.00 0.00 53 1018.0
20260902173430 94 255 2.0 3.0 0.00 0.00 0.00 55 1018.0
20260902172929 95 327 0.0 2.0 0.00 0.00 0.00 52 1018.0
20260902172428 94 20 2.0 2.0 0.00 0.00 0.00 55 1018.0
20260902171928 93 267 2.0 2.0 0.00 0.00 0.00 56 1018.0
20260902171427 94 21 4.0 4.0 0.00 0.00 0.00 54 1018.0
20260902170927 94 315 2.0 3.0 0.00 0.00 0.00 53 1018.0
20260902170426 93 217 3.0 3.0 0.00 0.00 0.00 56 1019.0
20260902165925 92 287 2.0 2.0 0.00 0.00 0.00 56 1018.0
20260902165424 93 44 0.0 0.0 0.00 0.00 0.00 57 1018.0
20260902164923 91 282 2.0 2.0 0.00 0.00 0.00 60 1019.0
20260902164423 91 296 3.0 3.0 0.00 0.00 0.00 57 1019.0
20260902163922 91 2 3.0 3.0 0.00 0.00 0.00 57 1019.0
20260902163422 90 283 3.0 3.0 0.00 0.00 0.00 60 1019.0
20260902162921 89 258 2.0 3.0 0.00 0.00 0.00 61 1019.0
20260902162420 91 53 3.0 3.0 0.00 0.00 0.00 62 1019.0
20260902161920 90 302 3.0 4.0 0.00 0.00 0.00 60 1019.0
20260902161419 90 211 3.0 3.0 0.00 0.00 0.00 63 1019.0
20260902160919 89 71 2.0 2.0 0.00 0.00 0.00 62 1019.0
20260902160419 89 269 2.0 3.0 0.00 0.00 0.00 60 1019.0
20260902155918 88 113 0.0 2.0 0.00 0.00 0.00 63 1019.0
20260902155418 88 110 0.0 2.0 0.00 0.00 0.00 62 1019.0
20260902154917 88 232 3.0 4.0 0.00 0.00 0.00 63 1019.0
20260902154417 89 263 0.0 0.0 0.00 0.00 0.00 65 1019.0
20260902153916 89 265 2.0 2.0 0.00 0.00 0.00 63 1019.0
20260902153416 89 272 0.0 2.0 0.00 0.00 0.00 65 1019.0
20260902152915 89 237 2.0 2.0 0.00 0.00 0.00 63 1019.0
20260902152415 89 269 0.0 2.0 0.00 0.00 0.00 67 1019.0
20260902151914 88 279 2.0 2.0 0.00 0.00 0.00 64 1019.0
20260902151413 88 326 4.0 4.0 0.00 0.00 0.00 64 1019.0
20260902150912 88 285 2.0 2.0 0.00 0.00 0.00 64 1019.0
20260902150412 88 231 2.0 3.0 0.00 0.00 0.00 65 1019.0
20260902145911 88 89 0.0 2.0 0.00 0.00 0.00 63 1019.0
20260902145411 89 320 2.0 3.0 0.00 0.00 0.00 63 1019.0
20260902144911 88 235 0.0 0.0 0.00 0.00 0.00 63 1019.0
20260902144410 88 215 3.0 3.0 0.00 0.00 0.00 65 1019.0
20260902143910 86 311 2.0 2.0 0.00 0.00 0.00 66 1019.0
20260902143409 87 1 2.0 2.0 0.00 0.00 0.00 69 1019.0
20260902142909 86 301 0.0 0.0 0.00 0.00 0.00 69 1019.0
20260902142408 86 330 4.0 4.0 0.00 0.00 0.00 68 1019.0
20260902141908 86 323 3.0 3.0 0.00 0.00 0.00 72 1019.0